Weather History for Athens Eleftherios, Greece

Change the Weather History Date:

Sunday, April 21, 2013

  Actual Average Record
Temperature  
Mean Temperature 58 °F -  
Max Temperature 69 °F - - ()
Min Temperature 48 °F - - ()
Degree Days  
Heating Degree Days 6    
Growing Degree Days 8 (Base 50)    
Moisture  
Dew Point 38 °F    
Average Humidity 46    
Maximum Humidity 62    
Minimum Humidity 30    
Precipitation  
Precipitation 0.00 in - - ()
Sea Level Pressure  
Sea Level Pressure 30.01 in    
Wind  
Wind Speed 5 mph ()    
Max Wind Speed 15 mph    
Max Gust Speed -    
Visibility 6.2 miles    
Events      
T = Trace of Precipitation, MM = Missing Value Source: Averaged Metar Reports

Daily Weather History Graph

Daily Weather History Graph

Search for Another Location

Airport:

Trip Planner

Search our weather history database for the weather conditions in past years. The results will help you decide how hot, cold, wet, or windy it might be!

Date:

Astronomy

Apr. 21, 2013 Rise Set
Actual Time 6:40 AM EEST 8:05 PM EEST
Civil Twilight 6:13 AM EEST 8:33 PM EEST
Nautical Twilight 5:40 AM EEST 9:06 PM EEST
Astronomical Twilight 5:05 AM EEST 9:41 PM EEST
Moon 3:35 PM EEST (4/21) 3:47 AM EEST (4/21)
Length of Visible Light 14h 20m
Length of Day
13h 24m
Waxing Gibbous, 77% of the Moon is Illuminated
Apr 21
Waxing Gibbous
Apr 25
Full
May 2
Last Quarter
May 10
New
May 18
First Quarter

Hourly Weather History & Observations

Time (EEST) Temp. Dew Point Humidity Pressure Visibility Wind Dir Wind Speed Gust Speed Precip Events Conditions
12:20 AM 53.6 °F 35.6 °F 51% 30.04 in 6.2 mi Variable 1.2 mph - N/A   Partly Cloudy
12:50 AM 48.2 °F 35.6 °F 62% 30.04 in 6.2 mi West 3.5 mph - N/A   Partly Cloudy
1:20 AM 50.0 °F 35.6 °F 58% 30.04 in 6.2 mi Variable 2.3 mph - N/A   Partly Cloudy
1:50 AM 51.8 °F 35.6 °F 54% 30.04 in 6.2 mi WNW 3.5 mph - N/A   Partly Cloudy
2:20 AM 51.8 °F 37.4 °F 58% 30.04 in 6.2 mi NW 3.5 mph - N/A   Partly Cloudy
2:50 AM 51.8 °F 37.4 °F 58% 30.01 in 6.2 mi NNW 2.3 mph - N/A   Partly Cloudy
3:20 AM 51.8 °F 37.4 °F 58% 30.01 in 6.2 mi NNW 3.5 mph - N/A   Partly Cloudy
3:50 AM 51.8 °F 37.4 °F 58% 30.01 in 6.2 mi Variable 2.3 mph - N/A   Partly Cloudy
4:20 AM 51.8 °F 37.4 °F 58% 30.01 in 6.2 mi Variable 3.5 mph - N/A   Partly Cloudy
4:50 AM 53.6 °F 37.4 °F 54% 30.01 in 6.2 mi NNW 5.8 mph - N/A   Partly Cloudy
5:20 AM 53.6 °F 37.4 °F 54% 30.01 in 6.2 mi NNW 5.8 mph - N/A   Partly Cloudy
5:50 AM 53.6 °F 37.4 °F 54% 30.01 in 6.2 mi NNW 5.8 mph - N/A   Partly Cloudy
6:20 AM 53.6 °F 37.4 °F 54% 30.01 in 6.2 mi NNW 8.1 mph - N/A   Partly Cloudy
6:50 AM 53.6 °F 37.4 °F 54% 30.01 in 6.2 mi NNW 6.9 mph - N/A   Partly Cloudy
7:20 AM 53.6 °F 35.6 °F 51% 30.01 in 6.2 mi NW 6.9 mph - N/A   Partly Cloudy
7:50 AM 57.2 °F 37.4 °F 48% 30.01 in 6.2 mi NW 6.9 mph - N/A   Partly Cloudy
8:20 AM 59.0 °F 37.4 °F 45% 30.01 in 6.2 mi NW 6.9 mph - N/A   Partly Cloudy
8:50 AM 60.8 °F 37.4 °F 42% 30.01 in 6.2 mi NW 6.9 mph - N/A   Partly Cloudy
9:20 AM 64.4 °F 37.4 °F 37% 30.01 in 6.2 mi NNW 6.9 mph - N/A   Partly Cloudy
9:50 AM 64.4 °F 37.4 °F 37% 30.01 in 6.2 mi NNW 6.9 mph - N/A   Partly Cloudy
10:20 AM 66.2 °F 37.4 °F 35% 30.01 in 6.2 mi NNW 10.4 mph - N/A   Scattered Clouds
10:50 AM 66.2 °F 35.6 °F 32% 30.01 in 6.2 mi NNW 11.5 mph - N/A   Scattered Clouds
11:20 AM 68.0 °F 37.4 °F 33% 30.01 in 6.2 mi North 12.7 mph - N/A   Scattered Clouds
11:50 AM 66.2 °F 39.2 °F 37% 30.01 in 6.2 mi ENE 12.7 mph - N/A   Scattered Clouds
12:20 PM 64.4 °F 39.2 °F 40% 30.01 in 6.2 mi NE 10.4 mph - N/A   Scattered Clouds
12:50 PM 64.4 °F 42.8 °F 45% 30.01 in 6.2 mi ENE 10.4 mph - N/A   Scattered Clouds
1:20 PM 66.2 °F 41.0 °F 40% 30.01 in 6.2 mi NE 8.1 mph - N/A   Scattered Clouds
1:50 PM 68.0 °F 37.4 °F 33% 30.01 in 6.2 mi North 10.4 mph - N/A   Scattered Clouds
2:20 PM 68.0 °F 39.2 °F 35% 30.01 in 6.2 mi North 9.2 mph - N/A   Scattered Clouds
2:50 PM 68.0 °F 37.4 °F 33% 30.01 in 6.2 mi NE 12.7 mph - N/A   Scattered Clouds
3:20 PM 69.8 °F 37.4 °F 31% 29.98 in 6.2 mi East 13.8 mph - N/A   Scattered Clouds
3:50 PM 69.8 °F 39.2 °F 33% 29.98 in 6.2 mi East 12.7 mph - N/A   Scattered Clouds
4:20 PM 69.8 °F 37.4 °F 31% 29.98 in 6.2 mi ENE 15.0 mph - N/A   Scattered Clouds
4:50 PM 69.8 °F 37.4 °F 31% 29.98 in 6.2 mi ENE 15.0 mph - N/A   Scattered Clouds
5:20 PM 68.0 °F 37.4 °F 33% 29.98 in 6.2 mi ENE 10.4 mph - N/A   Scattered Clouds
5:50 PM 68.0 °F 37.4 °F 33% 29.98 in 6.2 mi East 9.2 mph - N/A   Scattered Clouds
6:20 PM 68.0 °F 35.6 °F 30% 29.98 in 6.2 mi NE 11.5 mph - N/A   Scattered Clouds
6:50 PM 66.2 °F 35.6 °F 32% 29.95 in 6.2 mi NE 9.2 mph - N/A   Partly Cloudy
7:20 PM 64.4 °F 39.2 °F 40% 29.98 in 6.2 mi NE 10.4 mph - N/A   Partly Cloudy
7:50 PM 62.6 °F 39.2 °F 42% 29.98 in 6.2 mi NNE 5.8 mph - N/A   Partly Cloudy
8:20 PM 60.8 °F 41.0 °F 48% 29.98 in 6.2 mi SSW 5.8 mph - N/A   Partly Cloudy
8:50 PM 59.0 °F 39.2 °F 48% 29.98 in 6.2 mi SW 4.6 mph - N/A   Partly Cloudy
9:20 PM 59.0 °F 42.8 °F 55% 30.01 in 6.2 mi Calm Calm - N/A   Partly Cloudy
9:50 PM 59.0 °F 44.6 °F 59% 30.01 in 6.2 mi Calm Calm - N/A   Partly Cloudy
10:20 PM 59.0 °F 42.8 °F 55% 30.01 in 6.2 mi Calm Calm - N/A   Partly Cloudy
10:50 PM 53.6 °F 41.0 °F 62% 30.01 in 6.2 mi West 2.3 mph - N/A   Partly Cloudy
11:20 PM 53.6 °F 41.0 °F 62% 30.01 in 6.2 mi Variable 2.3 mph - N/A   Partly Cloudy
11:50 PM 53.6 °F 41.0 °F 62% 30.01 in 6.2 mi WNW 2.3 mph - N/A   Partly Cloudy